Location: T. Spence Memorial Observatory
(32.7356°N, 82.2098°W)
Time: 21:34:44
(UTC-04:00)

Daily predictions for brighter satellites

Satellite Brightness Start Highest point End
(mag) Time Altitude Azimuth Time Altitude Azimuth Time Altitude Azimuth
Helios 1B rocket 4.2 20:08:42 10° ENE 20:10:34 13° E 20:12:26 10° ESE
Spot 2 Rocket 4.5 20:07:55 10° SE 20:12:09 27° ENE 20:16:24 10° NNE
In-Cosmos 22 4.4 20:07:48 10° N 20:12:51 44° ENE 20:17:51 10° SSE
Cosmos 1378 3.4 20:11:01 10° N 20:14:45 72° W 20:18:27 10° S
Cosmos 2344 4.5 20:11:07 10° SW 20:18:37 55° NW 20:26:44 10° NNE
Cosmos 1544 3.2 20:15:27 10° S 20:18:57 50° E 20:22:31 10° NNE
Cosmos 1867 3.6 20:14:49 10° SSW 20:20:15 83° ESE 20:25:44 10° NNE
Cosmos 1934 Rocket 4.1 20:14:42 10° S 20:20:50 80° W 20:26:56 10° N
H-2A R/B (2) 1.9 20:19:20 10° WSW 20:21:57 45° S 20:26:56 11° ESE
Cosmos 1076 Rocket 4.5 20:18:34 10° NNE 20:22:09 26° ENE 20:25:43 10° SE
FENGYUN 3A 3.8 20:16:59 10° SSE 20:22:14 56° ENE 20:27:31 10° N
Cosmos 1805 3.2 20:21:30 10° S 20:25:20 64° E 20:29:13 10° NNE
Okean 3 Rocket 3.7 20:22:11 10° N 20:26:30 50° E 20:30:47 10° SSE
ALOS 2.2 20:23:37 10° SSE 20:28:14 67° ENE 20:32:52 10° N
Cosmos 1833 Rocket 3.6 20:25:50 10° N 20:30:40 29° ENE 20:34:47 13° ESE
Abrixas 3.4 20:31:40 10° NNW 20:34:15 31° NE 20:35:43 19° E
Cosmos 2278 Rocket 3.8 20:30:56 10° SW 20:36:10 38° WNW 20:41:27 10° N
RESURS DK-1 3.4 20:34:11 10° NW 20:38:09 47° WSW 20:42:06 10° S
Tiangong 1 2.0 20:35:25 10° WNW 20:38:11 38° SW 20:40:26 14° SSE
ATLAS 5 CENTAUR R/B 1.6 20:34:08 10° SSW 20:38:43 82° ESE 20:43:38 10° NNE
Delta 2 Rocket 4.3 20:34:30 10° W 20:39:21 48° SSW 20:42:56 14° SE
Cosmos 1125 Rocket 3.6 20:35:01 10° SSW 20:40:12 81° WNW 20:45:27 10° NNE
SeaSat 1 2.6 20:36:09 10° SE 20:40:56 55° ENE 20:45:45 10° NNW
PSLV R/B 4.0 20:38:55 10° SSW 20:41:43 30° SE 20:42:48 23° ESE
Cosmos 1733 4.0 20:38:28 10° SSE 20:41:52 31° E 20:45:18 10° NNE
Cosmos 1470 3.4 20:39:49 10° SSE 20:43:27 35° E 20:47:05 10° NNE
Yuri Rocket 4.1 20:39:51 10° W 20:43:55 32° SSW 20:46:41 16° SE
GPS 2-05 Rocket1 3.3 20:42:26 10° W 20:45:55 56° N 20:48:14 19° ENE
Cosmos-2242 3.3 20:42:07 10° SSE 20:46:06 42° E 20:50:07 10° NNE
Cosmos 1048 Rocket 4.2 20:42:39 10° N 20:47:35 47° ENE 20:51:40 15° SE
Geosat 4.0 20:42:43 10° NNE 20:47:39 55° ESE 20:52:33 10° S
OAO 2 Rocket 3.7 20:43:09 10° SW 20:48:05 47° SSE 20:51:18 21° E
Cosmos 1766 Rocket 4.0 20:44:43 10° N 20:48:57 40° E 20:52:21 15° SE
GP-B 3.5 20:45:30 10° SSE 20:49:38 40° E 20:53:48 10° NNE
HJ-1C 3.9 20:48:45 10° S 20:52:06 61° W 20:55:29 10° NNW
Cosmos 2297 4.3 20:48:43 10° SSW 20:54:20 62° WNW 21:00:02 10° NNE
SJ-6B 4.2 20:51:32 10° SSW 20:55:01 37° W 20:58:30 10° NNW
USA 186 3.5 20:58:05 12° NNE 20:58:05 12° NNE 20:58:22 10° NNE
H-2A R/B 2.8 20:53:09 10° S 20:57:02 86° W 21:00:59 10° NNW
Resurs 01 Rocket 1.6 20:54:45 10° SSE 20:59:09 88° WSW 21:03:36 10° NNW
Cosmos 1340 Rocket 3.5 20:58:47 10° NNE 21:02:22 31° ENE 21:02:28 31° E
ISS -1.4 21:06:53 10° W 21:09:32 23° NW 21:12:12 10° NNE
Cosmos 2082 Rocket 2.1 21:05:22 10° NNW 21:11:04 74° ENE 21:14:42 23° SSE
Cosmos 2100 Rocket 3.9 21:06:06 10° S 21:12:22 75° E 21:18:43 10° N
Meteor 1-29 2.8 21:12:40 10° NNE 21:16:08 68° ESE 21:16:41 55° SSE
SAR-Lupe-4 3.4 21:16:30 60° SE 21:16:58 71° ENE 21:20:33 10° N
Meteor 1-16 Rocket 4.5 21:13:04 10° SSE 21:18:35 47° E 21:24:14 10° NNE
Cosmos 1743 Rocket 4.1 21:15:54 10° N 21:19:40 39° ENE 21:19:40 39° ENE
Cosmos 1271 Rocket 3.3 21:18:45 10° SSW 21:22:42 61° W 21:26:42 10° N
Delta 128 4.1 21:19:56 10° WSW 21:24:13 42° S 21:24:46 40° SSE
COSMOS 2487 3.0 21:22:21 10° NNW 21:25:51 58° WSW 21:26:45 43° SSW
Aurora 2 Rocket 3.8 21:20:36 10° WSW 21:27:34 41° S 21:28:56 36° SSE
H-2A R/B 4.0 21:22:51 10° WSW 21:28:35 73° S 22:44:02 10° E
H-2A R/B 4.0 21:22:51 10° WSW 21:28:36 73° S 22:44:02 10° E
H-2A R/B 4.0 21:22:52 10° WSW 21:28:36 73° S 22:44:02 10° E
Cosmos 2251 Rocket 4.4 21:24:22 10° N 21:28:42 33° ENE 21:28:42 33° ENE
Cosmos 1818 4.3 21:26:19 10° NW 21:31:32 49° WSW 21:35:03 20° S
Cosmos 1269 Rocket 4.5 21:26:29 10° NNW 21:31:42 61° WSW 21:35:23 19° S
Cosmos 1674 3.5 21:31:03 10° NNW 21:34:43 49° W 21:36:15 30° SSW
SAR-Lupe-1 4.3 21:36:02 66° NW 21:36:02 66° NW 21:39:16 10° NNW
Cosmos 1802 Rocket 3.9 21:30:03 10° S 21:36:11 89° W 21:42:22 10° N
Cosmos 158 Rocket 4.3 21:31:15 10° NNW 21:36:24 67° WSW 21:39:05 29° S
USA 215 3.1 21:31:06 10° NE 21:37:39 79° SE 21:44:10 10° SW
Cosmos 1408 Rocket 4.5 21:35:27 10° NNW 21:39:45 48° W 21:42:45 18° SSW
Cosmos 1939 Rocket 3.7 21:42:56 42° N 21:42:56 42° N 21:45:49 10° N
Helios 1B rocket 3.9 21:42:10 10° N 21:45:59 37° WNW 21:49:46 10° SW
SJ-11-01 4.2 21:48:14 80° NNE 21:48:14 80° NNE 21:52:45 10° N
Cosmos 1842 Rocket 3.8 21:50:28 63° NNW 21:50:28 63° NNW 21:54:17 10° N
Lacrosse 5 rocket 2.8 21:52:08 10° NNW 21:54:09 29° NNW 21:54:09 29° NNW
Cosmos 2369 Rocket 4.4 22:01:47 12° NNE 22:01:47 12° NNE 22:02:11 10° NNE
Cosmos 494 Rocket 4.5 21:55:13 10° N 21:59:02 48° N 21:59:02 48° N
Envisat 3.5 22:08:43 52° WSW 22:09:04 53° W 22:14:02 10° NNW
Cosmos 1864 Rocket 4.5 22:11:34 67° SSW 22:12:27 81° W 22:18:47 10° N
Cosmos 1833 Rocket 4.2 22:09:36 10° NW 22:14:29 31° WSW 22:16:34 24° SW
ERS-1 Rocket 4.2 22:23:16 37° NNW 22:23:16 37° NNW 22:26:18 10° NNW
H-2A R/B 4.5 22:31:01 13° NNE 22:31:01 13° NNE 22:31:38 10° N
CZ-3 Stage 3 3.2 22:17:51 10° W 22:38:05 67° SW 22:38:05 67° SW
